Погода в Какинаде

Индия     16°56′59″N   82°14′45″E
темп.,
°C
ветер,
м/с
пор.,
м/с
влажн.,
%
обл.,
%
осадки,
мм/ч
давл.,
гПа
погр.,
м
17 мая, вт
вт1723:30+29юв237515 0.0 1005285
02:30+29юз1279100 0.0 1004210
05:30+28зюз018324 0.0 1004115
08:30+33ююв2360100 0.1 10061098
11:30+36вюв434979 0.1 10041587
14:30+36юв5448100 0.0 10011368
17:30+32ю566146 0.0 10011013
20:30+31ю4572100 0.1 1003707
18 мая, ср
ср1823:30+30ююз247798 0.1 1005477
02:30+29зюз1381100 0.4 1004289
05:30+29ююз1281100 0.4 1004219
08:30+33ю236199 0.0 10051043
11:30+36юв4448100 0.0 10031961
14:30+35ююв4452100 0.3 10021297
17:30+32ююв5662100 0.3 1001738
20:30+30ююв357391 0.0 1005629
19 мая, чт
чт1923:30+29ю247889 0.0 1005369
02:30+29ююз2583100 0.3 1004375
05:30+28юз1282100 0.3 1004148
08:30+33юз235986 0.0 10051165
11:30+37юв1343100 0.0 10042063
14:30+34юз235289 0.4 10021274
17:30+35ю344810 0.4 10011317
20:30+30ююз48709 0.0 1004440
20 мая, пт
пт2023:30+30зюз13729 0.0 1005339
02:30+29зюз3777100 0.2 1003485
05:30+28зюз4876100 0.2 1003481
08:30+32юз465695 0.0 1003817
11:30+36з454314 0.0 10021935
14:30+39зсз55355 0.0 9992218
17:30+38з35335 0.0 9991895
20:30+32юз495821 0.0 1001438
21 мая, сб
сб2123:30+31юз41066100 0.0 1001580
02:30+30зюз3116743 0.0 999623
05:30+29зюз410565 0.0 1000535
08:30+34з69415 0.0 10021003
11:30+41зсз57245 0.0 9991661
14:30+44зсз6718100 0.0 9962816
17:30+43зсз352080 0.0 9951491
20:30+34ююз4948100 0.0 997286